Regional Weather Roundup
Issued by NWS

Home | Current Version | Previous Version | Graphics & Text | Print | Product List | Glossary On
Versions: 1 2 3 4 5 6 7 8 9 10 11 12 13 14 15 16 17 18 19 20 21 22 23 24 25 26 27 28 29 30 31 32 33 34 35 36 37 38 39 40 41 42 43 44 45 46 47 48 49 50
000
ASUS43 KBIS 191110
RWRND

NORTH DAKOTA REGIONAL WEATHER ROUNDUP
NATIONAL WEATHER SERVICE BISMARCK ND
600 AM CDT SAT APR 19 2014

NOTE: "FAIR" INDICATES FEW OR NO CLOUDS BELOW 12,000 FEET WITH NO
SIGNIFICANT WEATHER AND/OR OBSTRUCTIONS TO VISIBILITY.


NDZ001>003-009>011-017-191200-
NORTHWEST NORTH DAKOTA

CITY           SKY/WX    TMP DP  RH WIND       PRES   REMARKS
WILLISTON      PTCLDY    33  29  85 SW8       29.74R
MINOT          CLEAR     38  34  85 SW10      29.70S
MINOT AFB      CLEAR     37  37  99 SW14      29.68S
$$

NDZ018>021-031>035-040>046-191200-
SOUTHWEST NORTH DAKOTA

CITY           SKY/WX    TMP DP  RH WIND       PRES   REMARKS
BISMARCK       PTCLDY    43  35  73 W14       29.81R
DICKINSON      CLEAR     37  27  67 W14       29.79S
GARRISON         N/A     38  33  82 SW12      29.75R
HETTINGER ARPT CLEAR     34  26  72 SW8       29.87R
$$

NDZ004>008-012>016-024-026-027-054-191200-
NORTHEAST NORTH DAKOTA

CITY           SKY/WX    TMP DP  RH WIND       PRES   REMARKS
GRAND FORKS    CLOUDY    46  36  68 S13       29.71F
GRND FRKS AFB  PTCLDY    44  37  74 S9        29.71F
DEVILS LAKE    CLEAR     37  30  75 W9        29.69S
$$

NDZ022-023-025-028>030-036>039-047>053-191200-
SOUTHEAST NORTH DAKOTA

CITY           SKY/WX    TMP DP  RH WIND       PRES   REMARKS
FARGO          MOCLDY    50  37  61 SE25G39   29.75R
JAMESTOWN      PTCLDY    44  37  76 NW12      29.74R
$$




USA.gov is the U.S. government's official web portal to all federal, state and local government web resources and services.